Volver al catálogo

USA 417

ActivoMilitarVLEO
NORAD 61038·PAYLOAD·🇺🇸 United States

Lanzado Sep 6, 2024 desde Vandenberg Space Force Base

Loading…

Próximos Pases (próximas 24 horas)

TLE

ObsoletoSource: Mike McCants

Época: Aug 25, 2026, 22:43 UTC

1 61038U 24160T   26237.94683694 0.00000000  00000-0  00000-0 0    03
2 61038  70.0230 181.8494 0003000 252.0505 107.9495 14.96713200    07

Sigue USA 417 en tiempo real con AllMySat

Download on the App Store